STARLINK-3259, 50192

Orbit data source: Space-Track

STARLINK-3259, 50192 is a payload satellite owned by SpaceX/Seattle (US) in LEO that was launched on Sat, 18 Dec 2021 UTC via an FALCON 9 launch vehicle from the Air Force Western Test Range (AFWTR). Payload-class satellites include a variety of spacecraft equipped with specific instruments for various scientific and technological missions. These include communications satellites like Starlink; space stations such as the ISS; scientific satellites like the Hubble; Earth observation satellites from companies like Planet Labs, Umbra, and HawkEye 360; GPS; miniature CubeSats for education and research; and military/defense satellites.

Loading next visibility...
Identifier
50192, 2021-125AN
Orbit
LEO
Country
Flag of USUS
Related business
Manufacturer
SpaceX/Seattle
Mission
Operational Commercial Communications
Bus & Motor
STARLINK, Unknown motor
Mass
290 kg wet, ~270 kg dry
Launch date (UTC)
2021-12-18 (5 years ago)
Launch vehicle
FALCON 9
Launch site
Air Force Western Test Range (AFWTR)
Object type
Payload
Rocket body
Debris
Shape & HBR
Box + 1 Pan, 10.1 m
Radar Cross Section
13.562 m², Large (>1 m²)

Expand to show TLE details & history
Last TLE update: 7 hours ago

TLE from 7 hours ago
0 STARLINK-3259
1 50192U 21125AN  26170.17975890  .00000202  00000-0  30809-4 0  9998
2 50192  53.1602 143.4073 0001333  88.2549 271.8595 15.08830916252056
Epoch: 2026-06-19T04:18Z
TLE epoch observation values (Epoch: 2026-06-19T04:18:51.168Z)
Latitude
-0.00005°
Longitude
171.28162°
Altitude
540.633 km
Speed
7.593 km/s
True Right ascension
09h 33m 37s
True Declination
0° 00' 00"
Sunlit
Object was in daylight at epoch
Visualization orbit readout
Latitude
Unknown
Longitude
Unknown
Altitude
Unknown
Speed
Unknown
Apparent Right ascension
Unknown
Apparent Declination
Unknown
Sunlit
N/A
Visualization observer readout
Local Sidereal Time
22:17:35
Azimuth
Unknown
Elevation
Unknown
Doppler factor
Unknown
Orbital elements
Apogee altitude
540.947 km
Perigee altitude
539.103 km
Semi-major axis
6,918.162 km
Eccentricity
0.00013
Inclination
53.1602°
RAAN
143.4073°
Arg. of periapsis
88.2549°
True anomaly
271.84423°
Mean anomaly
271.8595°
Eccentric anomaly
271.85187°
Mean motion
3.77187 °/min
Orbital period
95.44 mins
BSTAR
0.000030809
Loading maneuver chart data...
Computing Atmospheric mass density...

Documentation

Showing up to 5 results
|